Location: Le Domaine
(47.0333°N, 76.5361°W)
Time: 19:36:53
(UTC-05:00)

Transit 2A Rocket - Pass Details

Date: 19 November 2019
Orbit: 594 x 909 km, 66.7° (Epoch: 09 December)

Event Time Altitude Azimuth Distance (km) Brightness Sun altitude
Exits shadow 06:14:45 - 326° (NW) 2,130 6.8 -10.3°
Reaches altitude 10° 06:15:13 10° 326° (NW) 1,946 6.6 -10.2°
Maximum altitude 06:19:34 89° 42° (NE) 621 4.6 -9.5°
Drops below altitude 10° 06:24:07 10° 147° (SSE) 2,031 8.1 -8.8°
Sets 06:26:28 0° 148° (SSE) 2,979 9.0 -8.4°
